contact:dominique.lefevre@mio.osupytheas.fr, maurice.libes@osupytheas.fr, didier.mallarino@osupytheas.fr
Project:EMSO http://www.emso-fr.org/EMSO-France
Depth: 2436.0 m
Title:EMSO Ligure Ouest : Data MII capteur MICROCAT
DateTime_Computer,Latitude,Longitude,Temperature,Conductivity,Pressure,DateTime_Instrument
DateTime_Computer,Latitude,Longitude,degC,S m-1,dbar,DateTime_Instrument
2017-10-19T00:00:14Z,42.805,6.029,13.2940,4.59960,2471.874,2017-10-19T02:01:38Z
2017-10-19T00:01:48Z,42.805,6.029,13.2937,4.59965,2471.897,2017-10-19T02:03:13Z
2017-10-19T00:03:23Z,42.805,6.029,13.2942,4.59960,2471.852,2017-10-19T02:04:48Z
2017-10-19T00:04:58Z,42.805,6.029,13.2939,4.59959,2471.852,2017-10-19T02:06:23Z
2017-10-19T00:06:33Z,42.805,6.029,13.2933,4.59961,2471.874,2017-10-19T02:07:58Z
2017-10-19T00:08:08Z,42.805,6.029,13.2937,4.59964,2471.874,2017-10-19T02:09:33Z
2017-10-19T00:09:42Z,42.805,6.029,13.2939,4.59960,2471.866,2017-10-19T02:11:07Z
2017-10-19T00:11:17Z,42.805,6.029,13.2937,4.59959,2471.852,2017-10-19T02:12:42Z
2017-10-19T00:12:52Z,42.805,6.029,13.2938,4.59963,2471.889,2017-10-19T02:14:17Z
2017-10-19T00:14:27Z,42.805,6.029,13.2934,4.59960,2471.866,2017-10-19T02:15:52Z
2017-10-19T00:16:02Z,42.805,6.029,13.2933,4.59961,2471.866,2017-10-19T02:17:27Z
2017-10-19T00:17:37Z,42.805,6.029,13.2934,4.59959,2471.866,2017-10-19T02:19:02Z
2017-10-19T00:19:12Z,42.805,6.029,13.2938,4.59960,2471.852,2017-10-19T02:20:36Z
2017-10-19T00:20:46Z,42.805,6.029,13.2940,4.59959,2471.866,2017-10-19T02:22:11Z
2017-10-19T00:22:21Z,42.805,6.029,13.2936,4.59961,2471.866,2017-10-19T02:23:46Z
2017-10-19T00:23:56Z,42.805,6.029,13.2938,4.59961,2471.866,2017-10-19T02:25:21Z
2017-10-19T00:25:31Z,42.805,6.029,13.2938,4.59959,2471.874,2017-10-19T02:26:56Z
2017-10-19T00:27:06Z,42.805,6.029,13.2933,4.59958,2471.866,2017-10-19T02:28:31Z
2017-10-19T00:28:41Z,42.805,6.029,13.2938,4.59959,2471.866,2017-10-19T02:30:05Z
2017-10-19T00:30:15Z,42.805,6.029,13.2936,4.59959,2471.852,2017-10-19T02:31:40Z
2017-10-19T00:31:50Z,42.805,6.029,13.2935,4.59958,2471.866,2017-10-19T02:33:15Z
2017-10-19T00:33:25Z,42.805,6.029,13.2938,4.59961,2471.866,2017-10-19T02:34:50Z
2017-10-19T00:35:00Z,42.805,6.029,13.2938,4.59960,2471.866,2017-10-19T02:36:25Z
2017-10-19T00:36:35Z,42.805,6.029,13.2937,4.59960,2471.866,2017-10-19T02:38:00Z
2017-10-19T00:38:10Z,42.805,6.029,13.2939,4.59959,2471.866,2017-10-19T02:39:35Z
2017-10-19T00:39:44Z,42.805,6.029,13.2937,4.59961,2471.829,2017-10-19T02:41:09Z
2017-10-19T00:41:19Z,42.805,6.029,13.2935,4.59961,2471.866,2017-10-19T02:42:44Z
2017-10-19T00:42:54Z,42.805,6.029,13.2940,4.59960,2471.829,2017-10-19T02:44:19Z
2017-10-19T00:44:29Z,42.805,6.029,13.2937,4.59960,2471.844,2017-10-19T02:45:54Z
2017-10-19T00:46:04Z,42.805,6.029,13.2939,4.59965,2471.821,2017-10-19T02:47:29Z
2017-10-19T00:47:39Z,42.805,6.029,13.2939,4.59958,2471.829,2017-10-19T02:49:04Z
2017-10-19T00:49:13Z,42.805,6.029,13.2934,4.59962,2471.844,2017-10-19T02:50:38Z
2017-10-19T00:50:48Z,42.805,6.029,13.2935,4.59958,2471.806,2017-10-19T02:52:13Z
2017-10-19T00:52:23Z,42.805,6.029,13.2939,4.59960,2471.866,2017-10-19T02:53:48Z
2017-10-19T00:53:58Z,42.805,6.029,13.2940,4.59960,2471.874,2017-10-19T02:55:23Z
2017-10-19T00:55:33Z,42.805,6.029,13.2938,4.59960,2471.889,2017-10-19T02:56:58Z
2017-10-19T00:57:08Z,42.805,6.029,13.2937,4.59959,2471.889,2017-10-19T02:58:33Z
2017-10-19T00:58:42Z,42.805,6.029,13.2935,4.59960,2471.829,2017-10-19T03:00:07Z
2017-10-19T01:00:17Z,42.805,6.029,13.2938,4.59958,2471.844,2017-10-19T03:01:42Z
2017-10-19T01:01:52Z,42.805,6.029,13.2940,4.59958,2471.852,2017-10-19T03:03:17Z
2017-10-19T01:03:27Z,42.805,6.029,13.2933,4.59958,2471.844,2017-10-19T03:04:52Z
2017-10-19T01:05:02Z,42.805,6.029,13.2936,4.59958,2471.821,2017-10-19T03:06:27Z
2017-10-19T01:06:37Z,42.805,6.029,13.2939,4.59958,2471.866,2017-10-19T03:08:02Z
2017-10-19T01:08:11Z,42.805,6.029,13.2935,4.59959,2471.844,2017-10-19T03:09:36Z
2017-10-19T01:09:46Z,42.805,6.029,13.2935,4.59958,2471.844,2017-10-19T03:11:11Z
2017-10-19T01:11:21Z,42.805,6.029,13.2937,4.59958,2471.866,2017-10-19T03:12:46Z
2017-10-19T01:12:56Z,42.805,6.029,13.2938,4.59959,2471.844,2017-10-19T03:14:21Z
2017-10-19T01:14:31Z,42.805,6.029,13.2939,4.59961,2471.844,2017-10-19T03:15:56Z
2017-10-19T01:16:06Z,42.805,6.029,13.2938,4.59964,2471.852,2017-10-19T03:17:31Z
2017-10-19T01:17:40Z,42.805,6.029,13.2934,4.59958,2471.866,2017-10-19T03:19:05Z
2017-10-19T01:19:15Z,42.805,6.029,13.2939,4.59962,2471.829,2017-10-19T03:20:40Z
2017-10-19T01:20:50Z,42.805,6.029,13.2937,4.59959,2471.844,2017-10-19T03:22:15Z
2017-10-19T01:22:25Z,42.805,6.029,13.2936,4.59959,2471.844,2017-10-19T03:23:50Z
2017-10-19T01:24:00Z,42.805,6.029,13.2938,4.59959,2471.852,2017-10-19T03:25:25Z
2017-10-19T01:25:35Z,42.805,6.029,13.2937,4.59961,2471.866,2017-10-19T03:27:00Z
2017-10-19T01:27:09Z,42.805,6.029,13.2937,4.59961,2471.844,2017-10-19T03:28:34Z
2017-10-19T01:28:44Z,42.805,6.029,13.2936,4.59959,2471.852,2017-10-19T03:30:09Z
2017-10-19T01:30:19Z,42.805,6.029,13.2937,4.59962,2471.821,2017-10-19T03:31:44Z
2017-10-19T01:31:54Z,42.805,6.029,13.2933,4.59959,2471.829,2017-10-19T03:33:19Z
2017-10-19T01:33:29Z,42.805,6.029,13.2937,4.59959,2471.829,2017-10-19T03:34:54Z
2017-10-19T01:35:04Z,42.805,6.029,13.2941,4.59962,2471.866,2017-10-19T03:36:29Z
2017-10-19T01:36:38Z,42.805,6.029,13.2939,4.59958,2471.852,2017-10-19T03:38:03Z
2017-10-19T01:38:13Z,42.805,6.029,13.2935,4.59959,2471.844,2017-10-19T03:39:38Z
2017-10-19T01:39:48Z,42.805,6.029,13.2941,4.59958,2471.844,2017-10-19T03:41:13Z
2017-10-19T01:41:23Z,42.805,6.029,13.2939,4.59961,2471.844,2017-10-19T03:42:48Z
2017-10-19T01:42:58Z,42.805,6.029,13.2939,4.59961,2471.866,2017-10-19T03:44:23Z
2017-10-19T01:44:33Z,42.805,6.029,13.2937,4.59959,2471.829,2017-10-19T03:45:58Z
2017-10-19T01:46:08Z,42.805,6.029,13.2939,4.59958,2471.866,2017-10-19T03:47:32Z
2017-10-19T01:47:42Z,42.805,6.029,13.2937,4.59958,2471.806,2017-10-19T03:49:07Z
2017-10-19T01:49:17Z,42.805,6.029,13.2939,4.59960,2471.844,2017-10-19T03:50:42Z
2017-10-19T01:50:52Z,42.805,6.029,13.2941,4.59959,2471.821,2017-10-19T03:52:17Z
2017-10-19T01:52:27Z,42.805,6.029,13.2935,4.59958,2471.829,2017-10-19T03:53:52Z
2017-10-19T01:54:02Z,42.805,6.029,13.2941,4.59961,2471.829,2017-10-19T03:55:27Z
2017-10-19T01:55:37Z,42.805,6.029,13.2936,4.59960,2471.829,2017-10-19T03:57:01Z
2017-10-19T01:57:11Z,42.805,6.029,13.2932,4.59965,2471.852,2017-10-19T03:58:36Z
2017-10-19T01:58:46Z,42.805,6.029,13.2935,4.59960,2471.844,2017-10-19T04:00:11Z
2017-10-19T02:00:21Z,42.805,6.029,13.2938,4.59960,2471.844,2017-10-19T04:01:46Z
2017-10-19T02:01:56Z,42.805,6.029,13.2939,4.59962,2471.866,2017-10-19T04:03:21Z
2017-10-19T02:03:31Z,42.805,6.029,13.2939,4.59961,2471.852,2017-10-19T04:04:56Z
2017-10-19T02:05:06Z,42.805,6.029,13.2939,4.59959,2471.874,2017-10-19T04:06:30Z
2017-10-19T02:06:40Z,42.805,6.029,13.2941,4.59961,2471.844,2017-10-19T04:08:05Z
2017-10-19T02:08:15Z,42.805,6.029,13.2937,4.59960,2471.866,2017-10-19T04:09:40Z
2017-10-19T02:09:50Z,42.805,6.029,13.2940,4.59961,2471.852,2017-10-19T04:11:15Z
2017-10-19T02:11:25Z,42.805,6.029,13.2939,4.59961,2471.866,2017-10-19T04:12:50Z
2017-10-19T02:13:00Z,42.805,6.029,13.2942,4.59961,2471.866,2017-10-19T04:14:25Z
2017-10-19T02:14:35Z,42.805,6.029,13.2937,4.59960,2471.866,2017-10-19T04:15:59Z
2017-10-19T02:16:09Z,42.805,6.029,13.2938,4.59961,2471.844,2017-10-19T04:17:34Z
2017-10-19T02:17:44Z,42.805,6.029,13.2940,4.59961,2471.866,2017-10-19T04:19:09Z
2017-10-19T02:19:19Z,42.805,6.029,13.2937,4.59961,2471.844,2017-10-19T04:20:44Z
2017-10-19T02:20:54Z,42.805,6.029,13.2933,4.59964,2471.889,2017-10-19T04:22:19Z
2017-10-19T02:22:29Z,42.805,6.029,13.2939,4.59960,2471.844,2017-10-19T04:23:54Z
2017-10-19T02:24:04Z,42.805,6.029,13.2935,4.59960,2471.866,2017-10-19T04:25:28Z
2017-10-19T02:25:38Z,42.805,6.029,13.2940,4.59960,2471.866,2017-10-19T04:27:03Z
2017-10-19T02:27:13Z,42.805,6.029,13.2939,4.59959,2471.852,2017-10-19T04:28:38Z
2017-10-19T02:28:48Z,42.805,6.029,13.2939,4.59959,2471.866,2017-10-19T04:30:13Z
2017-10-19T02:30:23Z,42.805,6.029,13.2940,4.59962,2471.866,2017-10-19T04:31:48Z
2017-10-19T02:31:58Z,42.805,6.029,13.2939,4.59958,2471.844,2017-10-19T04:33:23Z
2017-10-19T02:33:33Z,42.805,6.029,13.2935,4.59958,2471.889,2017-10-19T04:34:58Z
2017-10-19T02:35:07Z,42.805,6.029,13.2935,4.59960,2471.866,2017-10-19T04:36:32Z
2017-10-19T02:36:42Z,42.805,6.029,13.2939,4.59959,2471.889,2017-10-19T04:38:07Z
2017-10-19T02:38:17Z,42.805,6.029,13.2937,4.59961,2471.897,2017-10-19T04:39:42Z
2017-10-19T02:39:52Z,42.805,6.029,13.2940,4.59961,2471.889,2017-10-19T04:41:17Z
2017-10-19T02:41:27Z,42.805,6.029,13.2940,4.59960,2471.889,2017-10-19T04:42:52Z
2017-10-19T02:43:02Z,42.805,6.029,13.2939,4.59960,2471.897,2017-10-19T04:44:27Z
2017-10-19T02:44:36Z,42.805,6.029,13.2937,4.59961,2471.889,2017-10-19T04:46:01Z
2017-10-19T02:46:11Z,42.805,6.029,13.2935,4.59961,2471.852,2017-10-19T04:47:36Z
2017-10-19T02:47:46Z,42.805,6.029,13.2935,4.59960,2471.912,2017-10-19T04:49:11Z
2017-10-19T02:49:21Z,42.805,6.029,13.2940,4.59959,2471.889,2017-10-19T04:50:46Z
2017-10-19T02:50:56Z,42.805,6.029,13.2940,4.59960,2471.889,2017-10-19T04:52:21Z
2017-10-19T02:52:31Z,42.805,6.029,13.2939,4.59961,2471.889,2017-10-19T04:53:56Z
2017-10-19T02:54:05Z,42.805,6.029,13.2939,4.59962,2471.874,2017-10-19T04:55:30Z
2017-10-19T02:55:40Z,42.805,6.029,13.2938,4.59961,2471.866,2017-10-19T04:57:05Z
2017-10-19T02:57:15Z,42.805,6.029,13.2938,4.59962,2471.912,2017-10-19T04:58:40Z
2017-10-19T02:58:50Z,42.805,6.029,13.2939,4.59962,2471.874,2017-10-19T05:00:15Z
2017-10-19T03:00:25Z,42.805,6.029,13.2935,4.59964,2471.889,2017-10-19T05:01:50Z
2017-10-19T03:02:00Z,42.805,6.029,13.2939,4.59961,2471.889,2017-10-19T05:03:25Z
2017-10-19T03:03:34Z,42.805,6.029,13.2935,4.59959,2471.889,2017-10-19T05:04:59Z
2017-10-19T03:05:09Z,42.805,6.029,13.2935,4.59960,2471.889,2017-10-19T05:06:34Z
2017-10-19T03:06:44Z,42.805,6.029,13.2941,4.59959,2471.912,2017-10-19T05:08:09Z
2017-10-19T03:08:19Z,42.805,6.029,13.2940,4.59963,2471.889,2017-10-19T05:09:44Z
2017-10-19T03:09:54Z,42.805,6.029,13.2939,4.59962,2471.889,2017-10-19T05:11:19Z
2017-10-19T03:11:29Z,42.805,6.029,13.2934,4.59961,2471.912,2017-10-19T05:12:54Z
2017-10-19T03:13:03Z,42.805,6.029,13.2939,4.59962,2471.897,2017-10-19T05:14:28Z
2017-10-19T03:14:38Z,42.805,6.029,13.2942,4.59962,2471.912,2017-10-19T05:16:03Z
2017-10-19T03:16:13Z,42.805,6.029,13.2940,4.59961,2471.889,2017-10-19T05:17:38Z
2017-10-19T03:17:48Z,42.805,6.029,13.2934,4.59964,2471.897,2017-10-19T05:19:13Z
2017-10-19T03:19:23Z,42.805,6.029,13.2935,4.59961,2471.912,2017-10-19T05:20:48Z
2017-10-19T03:20:58Z,42.805,6.029,13.2940,4.59961,2471.897,2017-10-19T05:22:23Z
2017-10-19T03:22:32Z,42.805,6.029,13.2932,4.59961,2471.897,2017-10-19T05:23:57Z
2017-10-19T03:24:07Z,42.805,6.029,13.2938,4.59961,2471.912,2017-10-19T05:25:32Z
2017-10-19T03:25:42Z,42.805,6.029,13.2943,4.59961,2471.897,2017-10-19T05:27:07Z
2017-10-19T03:27:17Z,42.805,6.029,13.2939,4.59959,2471.919,2017-10-19T05:28:42Z
2017-10-19T03:28:52Z,42.805,6.029,13.2938,4.59959,2471.912,2017-10-19T05:30:17Z
2017-10-19T03:30:27Z,42.805,6.029,13.2939,4.59960,2471.957,2017-10-19T05:31:52Z
2017-10-19T03:32:01Z,42.805,6.029,13.2939,4.59960,2471.889,2017-10-19T05:33:26Z
2017-10-19T03:33:36Z,42.805,6.029,13.2935,4.59961,2471.897,2017-10-19T05:35:01Z
2017-10-19T03:35:11Z,42.805,6.029,13.2936,4.59961,2471.912,2017-10-19T05:36:36Z
2017-10-19T03:36:46Z,42.805,6.029,13.2936,4.59963,2471.934,2017-10-19T05:38:11Z
2017-10-19T03:38:21Z,42.805,6.029,13.2937,4.59962,2471.897,2017-10-19T05:39:46Z
2017-10-19T03:39:56Z,42.805,6.029,13.2935,4.59961,2471.934,2017-10-19T05:41:21Z
2017-10-19T03:41:31Z,42.805,6.029,13.2934,4.59961,2471.912,2017-10-19T05:42:55Z
2017-10-19T03:43:05Z,42.805,6.029,13.2934,4.59966,2471.919,2017-10-19T05:44:30Z
2017-10-19T03:44:40Z,42.805,6.029,13.2937,4.59961,2471.934,2017-10-19T05:46:05Z
2017-10-19T03:46:15Z,42.805,6.029,13.2939,4.59962,2471.919,2017-10-19T05:47:40Z
2017-10-19T03:47:50Z,42.805,6.029,13.2939,4.59960,2471.934,2017-10-19T05:49:15Z
2017-10-19T03:49:25Z,42.805,6.029,13.2938,4.59961,2471.897,2017-10-19T05:50:50Z
2017-10-19T03:51:00Z,42.805,6.029,13.2935,4.59961,2471.919,2017-10-19T05:52:24Z
2017-10-19T03:52:34Z,42.805,6.029,13.2936,4.59962,2471.934,2017-10-19T05:53:59Z
2017-10-19T03:54:09Z,42.805,6.029,13.2939,4.59961,2471.934,2017-10-19T05:55:34Z
2017-10-19T03:55:44Z,42.805,6.029,13.2936,4.59961,2471.957,2017-10-19T05:57:09Z
2017-10-19T03:57:19Z,42.805,6.029,13.2941,4.59962,2471.919,2017-10-19T05:58:44Z
2017-10-19T03:58:54Z,42.805,6.029,13.2938,4.59961,2471.897,2017-10-19T06:00:19Z
2017-10-19T04:00:29Z,42.805,6.029,13.2934,4.59961,2471.957,2017-10-19T06:01:54Z
2017-10-19T04:02:03Z,42.805,6.029,13.2940,4.59961,2471.979,2017-10-19T06:03:28Z
2017-10-19T04:03:38Z,42.805,6.029,13.2932,4.59961,2471.957,2017-10-19T06:05:03Z
2017-10-19T04:05:13Z,42.805,6.029,13.2940,4.59964,2471.979,2017-10-19T06:06:38Z
2017-10-19T04:06:48Z,42.805,6.029,13.2938,4.59963,2471.919,2017-10-19T06:08:13Z
2017-10-19T04:08:23Z,42.805,6.029,13.2936,4.59961,2471.957,2017-10-19T06:09:48Z
2017-10-19T04:09:58Z,42.805,6.029,13.2938,4.59961,2471.957,2017-10-19T06:11:22Z
2017-10-19T04:11:32Z,42.805,6.029,13.2934,4.59961,2471.964,2017-10-19T06:12:57Z
2017-10-19T04:13:07Z,42.805,6.029,13.2938,4.59963,2471.934,2017-10-19T06:14:32Z
2017-10-19T04:14:42Z,42.805,6.029,13.2939,4.59960,2471.957,2017-10-19T06:16:07Z
2017-10-19T04:16:17Z,42.805,6.029,13.2935,4.59961,2471.942,2017-10-19T06:17:42Z
2017-10-19T04:17:52Z,42.805,6.029,13.2935,4.59961,2471.934,2017-10-19T06:19:17Z
2017-10-19T04:19:27Z,42.805,6.029,13.2936,4.59961,2471.957,2017-10-19T06:20:52Z
2017-10-19T04:21:01Z,42.805,6.029,13.2935,4.59961,2471.979,2017-10-19T06:22:26Z
2017-10-19T04:22:36Z,42.805,6.029,13.2939,4.59961,2471.957,2017-10-19T06:24:01Z
2017-10-19T04:24:11Z,42.805,6.029,13.2939,4.59962,2471.957,2017-10-19T06:25:36Z
2017-10-19T04:25:46Z,42.805,6.029,13.2940,4.59964,2471.964,2017-10-19T06:27:11Z
2017-10-19T04:27:21Z,42.805,6.029,13.2933,4.59961,2471.964,2017-10-19T06:28:46Z
2017-10-19T04:28:56Z,42.805,6.029,13.2935,4.59960,2472.002,2017-10-19T06:30:21Z
2017-10-19T04:30:30Z,42.805,6.029,13.2935,4.59960,2472.002,2017-10-19T06:31:55Z
2017-10-19T04:32:05Z,42.805,6.029,13.2937,4.59961,2471.942,2017-10-19T06:33:30Z
2017-10-19T04:33:40Z,42.805,6.029,13.2938,4.59961,2471.987,2017-10-19T06:35:05Z
2017-10-19T04:35:15Z,42.805,6.029,13.2940,4.59961,2472.002,2017-10-19T06:36:40Z
2017-10-19T04:36:50Z,42.805,6.029,13.2935,4.59963,2471.979,2017-10-19T06:38:15Z
2017-10-19T04:38:25Z,42.805,6.029,13.2933,4.59961,2471.979,2017-10-19T06:39:50Z
2017-10-19T04:39:59Z,42.805,6.029,13.2939,4.59959,2471.957,2017-10-19T06:41:24Z
2017-10-19T04:41:34Z,42.805,6.029,13.2937,4.59963,2471.979,2017-10-19T06:42:59Z
2017-10-19T04:43:09Z,42.805,6.029,13.2937,4.59961,2471.979,2017-10-19T06:44:34Z
2017-10-19T04:44:44Z,42.805,6.029,13.2944,4.59961,2471.987,2017-10-19T06:46:09Z
2017-10-19T04:46:19Z,42.805,6.029,13.2939,4.59961,2472.002,2017-10-19T06:47:44Z
2017-10-19T04:47:54Z,42.805,6.029,13.2937,4.59961,2472.01,2017-10-19T06:49:19Z
2017-10-19T04:49:28Z,42.805,6.029,13.2941,4.59963,2472.024,2017-10-19T06:50:53Z
2017-10-19T04:51:03Z,42.805,6.029,13.2937,4.59960,2472.002,2017-10-19T06:52:28Z
2017-10-19T04:52:38Z,42.805,6.029,13.2938,4.59961,2472.002,2017-10-19T06:54:03Z
2017-10-19T04:54:13Z,42.805,6.029,13.2941,4.59961,2472.024,2017-10-19T06:55:38Z
2017-10-19T04:55:48Z,42.805,6.029,13.2937,4.59961,2471.987,2017-10-19T06:57:13Z
2017-10-19T04:57:23Z,42.805,6.029,13.2936,4.59961,2472.024,2017-10-19T06:58:48Z
2017-10-19T04:58:57Z,42.805,6.029,13.2933,4.59961,2472.002,2017-10-19T07:00:22Z
2017-10-19T05:00:32Z,42.805,6.029,13.2940,4.59961,2471.979,2017-10-19T07:01:57Z
2017-10-19T05:02:07Z,42.805,6.029,13.2938,4.59964,2471.987,2017-10-19T07:03:32Z
2017-10-19T05:03:42Z,42.805,6.029,13.2940,4.59962,2472.024,2017-10-19T07:05:07Z
2017-10-19T05:05:17Z,42.805,6.029,13.2933,4.59962,2472.002,2017-10-19T07:06:42Z
2017-10-19T05:06:52Z,42.805,6.029,13.2938,4.59962,2472.002,2017-10-19T07:08:17Z
2017-10-19T05:08:26Z,42.805,6.029,13.2935,4.59961,2472.024,2017-10-19T07:09:51Z
2017-10-19T05:10:01Z,42.805,6.029,13.2939,4.59963,2472.002,2017-10-19T07:11:26Z
2017-10-19T05:11:36Z,42.805,6.029,13.2939,4.59964,2472.01,2017-10-19T07:13:01Z
2017-10-19T05:13:11Z,42.805,6.029,13.2939,4.59965,2472.002,2017-10-19T07:14:36Z
2017-10-19T05:14:46Z,42.805,6.029,13.2935,4.59964,2472.024,2017-10-19T07:16:11Z
2017-10-19T05:16:21Z,42.805,6.029,13.2936,4.59961,2472.024,2017-10-19T07:17:46Z
2017-10-19T05:17:55Z,42.805,6.029,13.2937,4.59961,2472.032,2017-10-19T07:19:20Z
2017-10-19T05:19:30Z,42.805,6.029,13.2940,4.59961,2472.024,2017-10-19T07:20:55Z
2017-10-19T05:21:05Z,42.805,6.029,13.2936,4.59960,2472.002,2017-10-19T07:22:30Z
2017-10-19T05:22:40Z,42.805,6.029,13.2940,4.59961,2472.01,2017-10-19T07:24:05Z
2017-10-19T05:24:15Z,42.805,6.029,13.2940,4.59961,2472.024,2017-10-19T07:25:40Z
2017-10-19T05:25:50Z,42.805,6.029,13.2936,4.59961,2471.987,2017-10-19T07:27:15Z
2017-10-19T05:27:25Z,42.805,6.029,13.2940,4.59961,2472.024,2017-10-19T07:28:49Z
2017-10-19T05:28:59Z,42.805,6.029,13.2939,4.59962,2471.987,2017-10-19T07:30:24Z
2017-10-19T05:30:34Z,42.805,6.029,13.2937,4.59964,2472.032,2017-10-19T07:31:59Z
2017-10-19T05:32:09Z,42.805,6.029,13.2935,4.59962,2472.01,2017-10-19T07:33:34Z
2017-10-19T05:33:44Z,42.805,6.029,13.2939,4.59962,2472.047,2017-10-19T07:35:09Z
2017-10-19T05:35:19Z,42.805,6.029,13.2940,4.59964,2472.002,2017-10-19T07:36:44Z
2017-10-19T05:36:54Z,42.805,6.029,13.2941,4.59963,2472.024,2017-10-19T07:38:18Z
2017-10-19T05:38:28Z,42.805,6.029,13.2936,4.59962,2472.01,2017-10-19T07:39:53Z
2017-10-19T05:40:03Z,42.805,6.029,13.2938,4.59962,2472.047,2017-10-19T07:41:28Z
2017-10-19T05:41:38Z,42.805,6.029,13.2938,4.59960,2472.024,2017-10-19T07:43:03Z
2017-10-19T05:43:13Z,42.805,6.029,13.2939,4.59962,2472.01,2017-10-19T07:44:38Z
2017-10-19T05:44:48Z,42.805,6.029,13.2935,4.59961,2472.047,2017-10-19T07:46:13Z
2017-10-19T05:46:23Z,42.805,6.029,13.2938,4.59961,2472.01,2017-10-19T07:47:47Z
2017-10-19T05:47:57Z,42.805,6.029,13.2935,4.59961,2472.032,2017-10-19T07:49:22Z
2017-10-19T05:49:32Z,42.805,6.029,13.2940,4.59961,2472.024,2017-10-19T07:50:57Z
2017-10-19T05:51:07Z,42.805,6.029,13.2937,4.59960,2472.055,2017-10-19T07:52:32Z
2017-10-19T05:52:42Z,42.805,6.029,13.2940,4.59960,2472.047,2017-10-19T07:54:07Z
2017-10-19T05:54:17Z,42.805,6.029,13.2935,4.59961,2472.047,2017-10-19T07:55:42Z
2017-10-19T05:55:52Z,42.805,6.029,13.2936,4.59961,2472.01,2017-10-19T07:57:17Z
2017-10-19T05:57:26Z,42.805,6.029,13.2936,4.59961,2472.032,2017-10-19T07:58:51Z
2017-10-19T05:59:01Z,42.805,6.029,13.2941,4.59961,2472.047,2017-10-19T08:00:26Z
2017-10-19T06:00:36Z,42.805,6.029,13.2936,4.59961,2472.055,2017-10-19T08:02:01Z
2017-10-19T06:02:11Z,42.805,6.029,13.2936,4.59961,2472.047,2017-10-19T08:03:36Z
2017-10-19T06:03:46Z,42.805,6.029,13.2938,4.59961,2472.032,2017-10-19T08:05:11Z
2017-10-19T06:05:21Z,42.805,6.029,13.2938,4.59962,2472.024,2017-10-19T08:06:46Z
2017-10-19T06:06:55Z,42.805,6.029,13.2933,4.59961,2472.047,2017-10-19T08:08:20Z
2017-10-19T06:08:30Z,42.805,6.029,13.2933,4.59964,2472.092,2017-10-19T08:09:55Z
2017-10-19T06:10:05Z,42.805,6.029,13.2938,4.59964,2472.055,2017-10-19T08:11:30Z
2017-10-19T06:11:40Z,42.805,6.029,13.2940,4.59960,2472.047,2017-10-19T08:13:05Z
2017-10-19T06:13:15Z,42.805,6.029,13.2936,4.59963,2472.047,2017-10-19T08:14:40Z
2017-10-19T06:14:50Z,42.805,6.029,13.2935,4.59962,2472.069,2017-10-19T08:16:15Z
2017-10-19T06:16:24Z,42.805,6.029,13.2933,4.59960,2472.01,2017-10-19T08:17:49Z
2017-10-19T06:17:59Z,42.805,6.029,13.2933,4.59961,2472.032,2017-10-19T08:19:24Z
2017-10-19T06:19:34Z,42.805,6.029,13.2939,4.59960,2472.069,2017-10-19T08:20:59Z
2017-10-19T06:21:09Z,42.805,6.029,13.2936,4.59962,2472.032,2017-10-19T08:22:34Z
2017-10-19T06:22:44Z,42.805,6.029,13.2933,4.59962,2472.055,2017-10-19T08:24:09Z
2017-10-19T06:24:19Z,42.805,6.029,13.2935,4.59962,2472.032,2017-10-19T08:25:44Z
2017-10-19T06:25:53Z,42.805,6.029,13.2939,4.59960,2472.024,2017-10-19T08:27:18Z
2017-10-19T06:27:28Z,42.805,6.029,13.2935,4.59960,2472.024,2017-10-19T08:28:53Z
2017-10-19T06:29:03Z,42.805,6.029,13.2939,4.59960,2472.047,2017-10-19T08:30:28Z
2017-10-19T06:30:38Z,42.805,6.029,13.2937,4.59960,2472.024,2017-10-19T08:32:03Z
2017-10-19T06:32:13Z,42.805,6.029,13.2937,4.59960,2472.055,2017-10-19T08:33:38Z
2017-10-19T06:33:48Z,42.805,6.029,13.2933,4.59961,2472.024,2017-10-19T08:35:13Z
2017-10-19T06:35:22Z,42.805,6.029,13.2940,4.59961,2472.055,2017-10-19T08:36:47Z
2017-10-19T06:36:57Z,42.805,6.029,13.2939,4.59961,2472.024,2017-10-19T08:38:22Z
2017-10-19T06:38:32Z,42.805,6.029,13.2936,4.59960,2472.032,2017-10-19T08:39:57Z
2017-10-19T06:40:07Z,42.805,6.029,13.2936,4.59964,2472.069,2017-10-19T08:41:32Z
2017-10-19T06:41:42Z,42.805,6.029,13.2935,4.59960,2472.092,2017-10-19T08:43:07Z
2017-10-19T06:43:17Z,42.805,6.029,13.2934,4.59961,2472.047,2017-10-19T08:44:42Z
2017-10-19T06:44:51Z,42.805,6.029,13.2941,4.59960,2472.032,2017-10-19T08:46:16Z
2017-10-19T06:46:26Z,42.805,6.029,13.2936,4.59961,2472.024,2017-10-19T08:47:51Z
2017-10-19T06:48:01Z,42.805,6.029,13.2935,4.59962,2472.055,2017-10-19T08:49:26Z
2017-10-19T06:49:36Z,42.805,6.029,13.2939,4.59963,2472.069,2017-10-19T08:51:01Z
2017-10-19T06:51:11Z,42.805,6.029,13.2933,4.59961,2472.069,2017-10-19T08:52:36Z
2017-10-19T06:52:46Z,42.805,6.029,13.2936,4.59961,2472.092,2017-10-19T08:54:11Z
2017-10-19T06:54:20Z,42.805,6.029,13.2936,4.59961,2472.047,2017-10-19T08:55:45Z
2017-10-19T06:55:55Z,42.805,6.029,13.2937,4.59962,2472.092,2017-10-19T08:57:20Z
2017-10-19T06:57:30Z,42.805,6.029,13.2933,4.59960,2472.069,2017-10-19T08:58:55Z
2017-10-19T06:59:05Z,42.805,6.029,13.2934,4.59964,2472.069,2017-10-19T09:00:30Z
2017-10-19T07:00:40Z,42.805,6.029,13.2935,4.59963,2472.069,2017-10-19T09:02:05Z
2017-10-19T07:02:15Z,42.805,6.029,13.2936,4.59960,2472.069,2017-10-19T09:03:40Z
2017-10-19T07:03:49Z,42.805,6.029,13.2936,4.59961,2472.069,2017-10-19T09:05:14Z
2017-10-19T07:05:24Z,42.805,6.029,13.2939,4.59961,2472.047,2017-10-19T09:06:49Z
2017-10-19T07:06:59Z,42.805,6.029,13.2935,4.59960,2472.055,2017-10-19T09:08:24Z
2017-10-19T07:08:34Z,42.805,6.029,13.2936,4.59965,2472.055,2017-10-19T09:09:59Z
2017-10-19T07:10:09Z,42.805,6.029,13.2934,4.59961,2472.055,2017-10-19T09:11:34Z
2017-10-19T07:11:44Z,42.805,6.029,13.2936,4.59961,2472.069,2017-10-19T09:13:09Z
2017-10-19T07:13:19Z,42.805,6.029,13.2936,4.59961,2472.055,2017-10-19T09:14:43Z
2017-10-19T07:14:53Z,42.805,6.029,13.2936,4.59961,2472.055,2017-10-19T09:16:18Z
2017-10-19T07:16:28Z,42.805,6.029,13.2940,4.59961,2472.047,2017-10-19T09:17:53Z
2017-10-19T07:18:03Z,42.805,6.029,13.2941,4.59960,2472.069,2017-10-19T09:19:28Z
2017-10-19T07:19:38Z,42.805,6.029,13.2936,4.59967,2472.069,2017-10-19T09:21:03Z
2017-10-19T07:21:13Z,42.805,6.029,13.2937,4.59961,2472.069,2017-10-19T09:22:38Z
2017-10-19T07:22:48Z,42.805,6.029,13.2935,4.59962,2472.032,2017-10-19T09:24:12Z
2017-10-19T07:24:22Z,42.805,6.029,13.2939,4.59959,2472.055,2017-10-19T09:25:47Z
2017-10-19T07:25:57Z,42.805,6.029,13.2935,4.59963,2472.069,2017-10-19T09:27:22Z
2017-10-19T07:27:32Z,42.805,6.029,13.2936,4.59959,2472.062,2017-10-19T09:28:57Z
2017-10-19T07:29:07Z,42.805,6.029,13.2940,4.59960,2472.047,2017-10-19T09:30:32Z
2017-10-19T07:30:42Z,42.805,6.029,13.2935,4.59961,2472.069,2017-10-19T09:32:07Z
2017-10-19T07:32:17Z,42.805,6.029,13.2935,4.59960,2472.055,2017-10-19T09:33:42Z
2017-10-19T07:33:51Z,42.805,6.029,13.2936,4.59960,2472.047,2017-10-19T09:35:16Z
2017-10-19T07:35:26Z,42.805,6.029,13.2935,4.59960,2472.069,2017-10-19T09:36:51Z
2017-10-19T07:37:01Z,42.805,6.029,13.2938,4.59961,2472.069,2017-10-19T09:38:26Z
2017-10-19T07:38:36Z,42.805,6.029,13.2935,4.59961,2472.032,2017-10-19T09:40:01Z
2017-10-19T07:40:11Z,42.805,6.029,13.2936,4.59961,2472.032,2017-10-19T09:41:36Z
2017-10-19T07:41:46Z,42.805,6.029,13.2938,4.59959,2472.055,2017-10-19T09:43:11Z
2017-10-19T07:43:20Z,42.805,6.029,13.2933,4.59961,2472.047,2017-10-19T09:44:45Z
2017-10-19T07:44:55Z,42.805,6.029,13.2939,4.59961,2472.047,2017-10-19T09:46:20Z